Regional Weather Roundup
Issued by NWS

Home | Current Version | Previous Version | Graphics & Text | Print | Product List | Glossary On
Versions: 1 2 3 4 5 6 7 8 9 10 11 12 13 14 15 16 17 18 19 20 21 22 23 24 25 26 27
000
ASUS45 KBOI 240810
RWRID

IDAHO REGIONAL WEATHER ROUNDUP
NATIONAL WEATHER SERVICE BOISE ID
200 AM MDT MON JUL 24 2017

NOTE: "FAIR" INDICATES FEW OR NO CLOUDS BELOW 12000 FEET
WITH NO SIGNIFICANT WEATHER AND/OR OBSTRUCTIONS TO VISIBILITY

IDZ012-014-240900-
SOUTHWEST IDAHO


CITY           SKY/WX    TMP DP  RH WIND       PRES   REMARKS
BOISE          MOCLDY    75  42  30 SE5       29.87S
CALDWELL       MOCLDY    72  57  59 S5        29.87R
MOUNTAIN HOME  PTCLDY    76  43  30 CALM      29.89S
$$

IDZ016-017-240900-
SOUTHCENTRAL IDAHO


CITY           SKY/WX    TMP DP  RH WIND       PRES   REMARKS
BURLEY         MOCLDY    69  48  47 SW9       29.96S
JEROME         MOCLDY    75  42  30 SE7       29.97S
TWIN FALLS     MOCLDY    73  45  36 S12       29.97S
$$

IDZ019>023-240900-
SOUTHEAST IDAHO


CITY           SKY/WX    TMP DP  RH WIND       PRES   REMARKS
IDAHO FALLS    PTCLDY    65  46  50 SW7       30.01S
POCATELLO      CLEAR     71  37  28 S8        30.00S
REXBURG        CLOUDY    60  49  66 N3        30.01S
$$

IDZ006-010-011-018-031-032-240900-
CENTRAL IDAHO MOUNTAINS


CITY           SKY/WX    TMP DP  RH WIND       PRES   REMARKS
MCCALL         MOCLDY    61  46  57 CALM      30.04S
HAILEY         CLEAR     59  37  44 NW10      30.09S
STANLEY          N/A     54  32  43 S5        30.19R
SALMON         NOT AVBL
CHALLIS        CLEAR     65  36  34 N3        30.03R
$$

IDZ002-004-006-007-026-240900-
NORTHERN IDAHO


CITY           SKY/WX    TMP DP  RH WIND       PRES   REMARKS
LEWISTON       PTCLDY    77  49  37 W6        29.82R
LOWELL           N/A     65  56  72 N3        29.88R
COEUR D`ALENE  CLEAR     70  54  56 S5        29.85R
MULLAN PASS    CLEAR     63  42  46 W6        30.07R
$$




USA.gov is the U.S. government's official web portal to all federal, state and local government web resources and services.